• In Hungary
  • List of Countries
  • For 7 days
  • Water Temperature
  • Satellite Maps
  • Weather Map
  • News
  • Weather Widgets
  • user-avatar
    Login

    Hourly Weather Dudinka

    Today, 24 January, Wednesday

    Time Temperature Precipitation Wind Pressure Humidity
    00:00 -30°C° 0 mm 1 mps 788 mmHg 93%
    01:00 -32°C° 0 mm 2 mps 788 mmHg 91%
    02:00 -32°C° 0 mm 2 mps 788 mmHg 89%
    03:00 -32°C° 0 mm 2 mps 788 mmHg 87%
    04:00 -32°C° 0 mm 2 mps 788 mmHg 84%
    05:00 -32°C° 0 mm 2 mps 788 mmHg 81%
    06:00 -34°C° 0 mm 2 mps 788 mmHg 81%
    07:00 -34°C° 0 mm 2 mps 788 mmHg 78%
    08:00 -34°C° 0 mm 2 mps 788 mmHg 76%
    09:00 -34°C° 0 mm 2 mps 788 mmHg 74%
    10:00 -32°C° 0 mm 2 mps 788 mmHg 73%
    11:00 -32°C° 0 mm 2 mps 788 mmHg 71%
    12:00 -31°C° 0 mm 2 mps 787 mmHg 70%
    13:00 -33°C° 0 mm 3 mps 787 mmHg 69%
    14:00 -32°C° 0 mm 3 mps 787 mmHg 69%
    15:00 -32°C° 0 mm 3 mps 787 mmHg 69%
    16:00 -32°C° 0 mm 4 mps 787 mmHg 69%
    17:00 -32°C° 0 mm 4 mps 787 mmHg 69%
    18:00 -31°C° 0 mm 4 mps 786 mmHg 70%
    19:00 -32°C° 0 mm 5 mps 786 mmHg 70%
    20:00 -31°C° 0 mm 5 mps 786 mmHg 69%
    21:00 -31°C° 0 mm 5 mps 786 mmHg 69%
    22:00 -31°C° 0 mm 6 mps 785 mmHg 69%
    23:00 -31°C° 0 mm 6 mps 785 mmHg 69%

    Tomorrow, 25 January, Thursday

    Time Temperature Precipitation Wind Pressure Humidity
    00:00 -32°C° 0 mm 7 mps 785 mmHg 68%
    01:00 -32°C° 0 mm 7 mps 784 mmHg 69%
    02:00 -33°C° 0 mm 8 mps 784 mmHg 69%
    03:00 -33°C° 0 mm 8 mps 783 mmHg 69%
    04:00 -32°C° 0 mm 8 mps 783 mmHg 70%
    05:00 -32°C° 0 mm 8 mps 783 mmHg 71%
    06:00 -32°C° 0 mm 8 mps 783 mmHg 71%
    07:00 -32°C° 0 mm 8 mps 783 mmHg 73%
    08:00 -32°C° 0 mm 8 mps 782 mmHg 74%
    09:00 -30°C° 0 mm 8 mps 782 mmHg 75%
    10:00 -32°C° 0 mm 8 mps 782 mmHg 76%
    11:00 -32°C° 0 mm 8 mps 782 mmHg 76%
    12:00 -32°C° 0 mm 8 mps 781 mmHg 77%
    13:00 -32°C° 0 mm 8 mps 781 mmHg 77%
    14:00 -32°C° 0 mm 8 mps 781 mmHg 78%
    15:00 -32°C° 0 mm 8 mps 780 mmHg 78%
    16:00 -32°C° 0 mm 8 mps 780 mmHg 79%
    17:00 -30°C° 0 mm 8 mps 780 mmHg 80%
    18:00 -30°C° 0 mm 7 mps 780 mmHg 81%
    19:00 -30°C° 0 mm 7 mps 780 mmHg 83%
    20:00 -30°C° 0 mm 7 mps 779 mmHg 85%
    21:00 -30°C° 0 mm 7 mps 779 mmHg 87%
    22:00 -30°C° 0.1 mm 7 mps 779 mmHg 89%
    23:00 -30°C° 0.1 mm 7 mps 778 mmHg 90%

    Day after tomorrow, 26 January, Friday

    Time Temperature Precipitation Wind Pressure Humidity
    00:00 -30°C° 0.1 mm 7 mps 778 mmHg 92%
    01:00 -30°C° 0.2 mm 7 mps 778 mmHg 92%
    02:00 -30°C° 0.2 mm 7 mps 777 mmHg 92%
    03:00 -30°C° 0.2 mm 7 mps 777 mmHg 92%
    04:00 -30°C° 0.3 mm 8 mps 776 mmHg 93%
    05:00 -30°C° 0.3 mm 8 mps 776 mmHg 93%
    06:00 -29°C° 0.3 mm 8 mps 775 mmHg 94%
    07:00 -29°C° 0.3 mm 8 mps 775 mmHg 94%
    08:00 -29°C° 0.3 mm 8 mps 774 mmHg 94%
    09:00 -29°C° 0.3 mm 8 mps 774 mmHg 94%
    10:00 -29°C° 0.2 mm 8 mps 773 mmHg 93%
    11:00 -29°C° 0.2 mm 8 mps 773 mmHg 93%
    12:00 -30°C° 0.2 mm 9 mps 772 mmHg 92%
    13:00 -29°C° 0.2 mm 8 mps 772 mmHg 92%
    14:00 -29°C° 0.2 mm 8 mps 771 mmHg 92%
    15:00 -29°C° 0.2 mm 8 mps 771 mmHg 91%
    16:00 -29°C° 0.1 mm 8 mps 770 mmHg 91%
    17:00 -28°C° 0.1 mm 8 mps 770 mmHg 91%
    18:00 -28°C° 0.1 mm 8 mps 769 mmHg 91%
    19:00 -28°C° 0.1 mm 8 mps 769 mmHg 91%
    20:00 -28°C° 0.1 mm 9 mps 768 mmHg 91%
    21:00 -28°C° 0.1 mm 9 mps 767 mmHg 91%
    22:00 -30°C° 0.1 mm 9 mps 767 mmHg 91%
    23:00 -30°C° 0.1 mm 9 mps 766 mmHg 91%

    27 January, Saturday

    Time Temperature Precipitation Wind Pressure Humidity
    00:00 -30°C° 0.1 mm 9 mps 765 mmHg 91%
    01:00 -30°C° 0 mm 9 mps 765 mmHg 91%
    02:00 -30°C° 0 mm 9 mps 764 mmHg 91%
    03:00 -30°C° 0 mm 9 mps 763 mmHg 91%
    04:00 -28°C° 0.2 mm 9 mps 763 mmHg 92%
    05:00 -28°C° 0.2 mm 9 mps 762 mmHg 92%
    06:00 -27°C° 0.2 mm 8 mps 761 mmHg 92%
    07:00 -27°C° 0.3 mm 8 mps 761 mmHg 92%
    08:00 -26°C° 0.3 mm 8 mps 760 mmHg 92%
    09:00 -26°C° 0.3 mm 8 mps 760 mmHg 92%
    10:00 -24°C° 0.2 mm 7 mps 759 mmHg 92%
    11:00 -24°C° 0.2 mm 7 mps 759 mmHg 92%
    12:00 -24°C° 0.2 mm 7 mps 758 mmHg 92%
    13:00 -24°C° 0.1 mm 7 mps 758 mmHg 92%
    14:00 -24°C° 0.1 mm 7 mps 757 mmHg 92%
    15:00 -24°C° 0.1 mm 7 mps 757 mmHg 92%
    16:00 -23°C° 0.1 mm 7 mps 757 mmHg 92%
    17:00 -23°C° 0.1 mm 8 mps 756 mmHg 92%
    18:00 -22°C° 0.1 mm 8 mps 756 mmHg 92%
    19:00 -22°C° 0.2 mm 8 mps 755 mmHg 92%
    20:00 -21°C° 0.2 mm 8 mps 755 mmHg 92%
    21:00 -21°C° 0.2 mm 8 mps 754 mmHg 92%
    22:00 -19°C° 0.2 mm 8 mps 754 mmHg 92%
    23:00 -19°C° 0.2 mm 8 mps 753 mmHg 92%

    28 January, Sunday

    Time Temperature Precipitation Wind Pressure Humidity
    00:00 -18°C° 0.2 mm 8 mps 753 mmHg 92%
    01:00 -18°C° 0.2 mm 8 mps 752 mmHg 92%
    02:00 -17°C° 0.2 mm 8 mps 752 mmHg 92%
    03:00 -17°C° 0.2 mm 8 mps 751 mmHg 92%
    04:00 -17°C° 0.2 mm 8 mps 751 mmHg 92%
    05:00 -16°C° 0.2 mm 8 mps 750 mmHg 92%
    06:00 -16°C° 0.2 mm 8 mps 750 mmHg 92%
    07:00 -16°C° 0.3 mm 8 mps 749 mmHg 92%
    08:00 -16°C° 0.3 mm 8 mps 749 mmHg 92%
    09:00 -16°C° 0.3 mm 8 mps 748 mmHg 92%
    10:00 -16°C° 0.3 mm 8 mps 748 mmHg 92%
    11:00 -16°C° 0.3 mm 8 mps 748 mmHg 92%
    12:00 -16°C° 0.3 mm 8 mps 748 mmHg 92%
    13:00 -16°C° 0.2 mm 8 mps 748 mmHg 92%
    14:00 -16°C° 0.2 mm 8 mps 748 mmHg 92%
    15:00 -16°C° 0.2 mm 8 mps 748 mmHg 92%
    16:00 -16°C° 0.2 mm 8 mps 748 mmHg 92%
    17:00 -16°C° 0.2 mm 8 mps 748 mmHg 92%
    18:00 -16°C° 0.2 mm 8 mps 748 mmHg 92%
    19:00 -16°C° 0.2 mm 8 mps 748 mmHg 92%
    20:00 -16°C° 0.2 mm 8 mps 748 mmHg 92%
    21:00 -17°C° 0.2 mm 8 mps 748 mmHg 92%
    22:00 -17°C° 0.1 mm 7 mps 748 mmHg 92%
    23:00 -17°C° 0.1 mm 7 mps 748 mmHg 92%

    29 January, Monday

    Time Temperature Precipitation Wind Pressure Humidity
    00:00 -18°C° 0.1 mm 7 mps 748 mmHg 92%
    01:00 -18°C° 0.1 mm 7 mps 748 mmHg 92%
    02:00 -18°C° 0.1 mm 7 mps 748 mmHg 92%
    03:00 -19°C° 0.1 mm 7 mps 748 mmHg 92%
    04:00 -19°C° 0 mm 7 mps 749 mmHg 91%
    05:00 -19°C° 0 mm 7 mps 749 mmHg 91%
    06:00 -19°C° 0 mm 7 mps 749 mmHg 91%
    07:00 -20°C° 0 mm 7 mps 749 mmHg 90%
    08:00 -20°C° 0 mm 7 mps 749 mmHg 90%
    09:00 -20°C° 0 mm 7 mps 749 mmHg 90%
    10:00 -20°C° 0 mm 7 mps 749 mmHg 90%
    11:00 -20°C° 0 mm 7 mps 749 mmHg 90%
    12:00 -20°C° 0 mm 7 mps 749 mmHg 90%
    13:00 -20°C° 0 mm 7 mps 749 mmHg 90%
    14:00 -20°C° 0 mm 7 mps 749 mmHg 90%
    15:00 -20°C° 0 mm 7 mps 750 mmHg 90%
    16:00 -20°C° 0.1 mm 7 mps 750 mmHg 90%
    17:00 -20°C° 0.1 mm 7 mps 750 mmHg 89%
    18:00 -20°C° 0.1 mm 7 mps 750 mmHg 89%
    19:00 -20°C° 0 mm 6 mps 750 mmHg 90%
    20:00 -18°C° 0 mm 6 mps 751 mmHg 90%
    21:00 -18°C° 0 mm 6 mps 751 mmHg 90%
    22:00 -18°C° 0.1 mm 6 mps 751 mmHg 90%
    23:00 -18°C° 0.1 mm 6 mps 751 mmHg 90%
    Show more